Time,TemperatureF,DewpointF,PressureIn,WindDirection,WindDirectionDegrees,WindSpeedMPH,WindSpeedGustMPH,Humidity,HourlyPrecipIn,Conditions,Clouds,dailyrainin,SolarRadiationWatts/m^2,SoftwareType,DateUTC
2013-01-19 00:03:00,32.0,30.0,-100.00,North,353,1.0,3.0,93,0.00,,,0.01,0.000000,,2013-01-19 05:03:00,
2013-01-19 00:12:00,32.0,30.0,-100.00,North,353,1.0,3.0,93,0.00,,,0.01,0.000000,,2013-01-19 05:12:00,
2013-01-19 00:22:00,32.0,30.0,-100.00,North,353,1.0,3.0,93,0.00,,,0.01,0.000000,,2013-01-19 05:22:00,
2013-01-19 00:32:00,32.0,30.0,-100.00,North,353,1.0,3.0,93,0.00,,,0.01,0.000000,,2013-01-19 05:32:00,
2013-01-19 00:53:00,31.0,29.0,-100.00,North,354,0.0,2.0,94,0.00,,,-99.99,0.000000,,2013-01-19 05:53:00,
2013-01-19 01:02:00,31.0,29.0,-100.00,North,354,0.0,2.0,94,0.00,,,-99.99,0.000000,,2013-01-19 06:02:00,
2013-01-19 01:12:00,31.0,29.0,-100.00,North,354,0.0,2.0,94,0.00,,,-99.99,0.000000,,2013-01-19 06:12:00,
2013-01-19 01:22:00,31.0,29.0,-100.00,North,354,0.0,2.0,94,0.00,,,-99.99,0.000000,,2013-01-19 06:22:00,
2013-01-19 01:32:00,31.0,29.0,-100.00,North,354,0.0,2.0,94,0.00,,,-99.99,0.000000,,2013-01-19 06:32:00,
2013-01-19 01:53:00,29.0,27.0,-100.00,North,5,0.0,2.0,94,0.00,,,-99.99,0.000000,,2013-01-19 06:53:00,
2013-01-19 02:02:00,29.0,27.0,-100.00,North,5,0.0,2.0,94,0.00,,,-99.99,0.000000,,2013-01-19 07:02:00,
2013-01-19 02:12:00,29.0,27.0,-100.00,North,5,0.0,2.0,94,0.00,,,-99.99,0.000000,,2013-01-19 07:12:00,
2013-01-19 02:22:00,29.0,27.0,-100.00,North,5,0.0,2.0,94,0.00,,,-99.99,0.000000,,2013-01-19 07:22:00,
2013-01-19 02:32:00,29.0,27.0,-100.00,North,5,0.0,2.0,94,0.00,,,-99.99,0.000000,,2013-01-19 07:32:00,
2013-01-19 02:52:00,29.0,27.0,-100.00,NE,39,0.0,2.0,94,0.00,,,-99.99,0.000000,,2013-01-19 07:52:00,
2013-01-19 03:02:00,29.0,27.0,-100.00,NE,39,0.0,2.0,94,0.00,,,-99.99,0.000000,,2013-01-19 08:02:00,
2013-01-19 03:12:00,29.0,27.0,-100.00,NE,39,0.0,2.0,94,0.00,,,-99.99,0.000000,,2013-01-19 08:12:00,
2013-01-19 03:22:00,29.0,27.0,-100.00,NE,39,0.0,2.0,94,0.00,,,-99.99,0.000000,,2013-01-19 08:22:00,
2013-01-19 03:32:00,29.0,27.0,-100.00,NE,39,0.0,2.0,94,0.00,,,-99.99,0.000000,,2013-01-19 08:32:00,
2013-01-19 03:53:00,28.0,27.0,-100.00,NNE,15,0.0,2.0,94,0.00,,,-99.99,0.000000,,2013-01-19 08:53:00,
2013-01-19 04:02:00,28.0,27.0,-100.00,NNE,15,0.0,2.0,94,0.00,,,-99.99,0.000000,,2013-01-19 09:02:00,
2013-01-19 04:12:00,28.0,27.0,-100.00,NNE,15,0.0,2.0,94,0.00,,,-99.99,0.000000,,2013-01-19 09:12:00,
2013-01-19 04:22:00,28.0,27.0,-100.00,NNE,15,0.0,2.0,94,0.00,,,-99.99,0.000000,,2013-01-19 09:22:00,
2013-01-19 04:32:00,28.0,27.0,-100.00,NNE,15,0.0,2.0,94,0.00,,,-99.99,0.000000,,2013-01-19 09:32:00,
2013-01-19 04:53:00,29.0,27.0,-100.00,NNE,23,0.0,3.0,94,0.00,,,0.01,0.000000,,2013-01-19 09:53:00,
2013-01-19 05:02:00,29.0,27.0,-100.00,NNE,23,0.0,3.0,94,0.00,,,0.01,0.000000,,2013-01-19 10:02:00,
2013-01-19 05:12:00,29.0,27.0,-100.00,NNE,23,0.0,3.0,94,0.00,,,0.01,0.000000,,2013-01-19 10:12:00,
2013-01-19 05:22:00,29.0,27.0,-100.00,NNE,23,0.0,3.0,94,0.00,,,0.01,0.000000,,2013-01-19 10:22:00,
2013-01-19 05:32:00,29.0,27.0,-100.00,NNE,23,0.0,3.0,94,0.00,,,0.01,0.000000,,2013-01-19 10:32:00,
2013-01-19 05:53:00,27.0,26.0,-100.00,ENE,63,0.0,2.0,94,0.00,,,0.01,0.000000,,2013-01-19 10:53:00,
2013-01-19 06:02:00,27.0,26.0,-100.00,ENE,63,0.0,2.0,94,0.00,,,0.01,0.000000,,2013-01-19 11:02:00,
2013-01-19 06:12:00,27.0,26.0,-100.00,ENE,63,0.0,2.0,94,0.00,,,0.01,0.000000,,2013-01-19 11:12:00,
2013-01-19 07:33:00,28.0,27.0,-100.00,NE,54,0.0,3.0,94,0.00,,,0.01,0.000000,,2013-01-19 12:33:00,
2013-01-19 07:53:00,28.0,27.0,-100.00,NE,54,0.0,3.0,94,0.00,,,0.01,0.000000,,2013-01-19 12:53:00,
2013-01-19 08:02:00,28.0,27.0,-100.00,NE,54,0.0,3.0,94,0.00,,,0.01,0.000000,,2013-01-19 13:02:00,
2013-01-19 08:12:00,28.0,27.0,-100.00,NE,54,0.0,3.0,94,0.00,,,0.01,0.000000,,2013-01-19 13:12:00,
2013-01-19 08:22:00,28.0,27.0,-100.00,NE,54,0.0,3.0,94,0.00,,,0.01,0.000000,,2013-01-19 13:22:00,
2013-01-19 08:33:00,26.0,24.0,-100.00,East,94,0.0,2.0,93,0.00,,,0.01,0.000000,,2013-01-19 13:33:00,
2013-01-19 08:53:00,26.0,24.0,-100.00,East,94,0.0,2.0,93,0.00,,,0.01,0.000000,,2013-01-19 13:53:00,
2013-01-19 09:02:00,26.0,24.0,-100.00,East,94,0.0,2.0,93,0.00,,,0.01,0.000000,,2013-01-19 14:02:00,
2013-01-19 09:12:00,26.0,24.0,-100.00,East,94,0.0,2.0,93,0.00,,,0.01,0.000000,,2013-01-19 14:12:00,
2013-01-19 09:22:00,26.0,24.0,-100.00,East,94,0.0,2.0,93,0.00,,,0.01,0.000000,,2013-01-19 14:22:00,
2013-01-19 09:33:00,27.0,25.0,-100.00,North,356,0.0,4.0,93,-99.99,,,0.01,0.000000,,2013-01-19 14:33:00,
2013-01-19 09:53:00,27.0,25.0,-100.00,North,356,0.0,4.0,93,-99.99,,,0.01,0.000000,,2013-01-19 14:53:00,
2013-01-19 10:03:00,27.0,25.0,-100.00,North,356,0.0,4.0,93,-99.99,,,0.01,0.000000,,2013-01-19 15:03:00,
2013-01-19 10:12:00,27.0,25.0,-100.00,North,356,0.0,4.0,93,-99.99,,,0.01,0.000000,,2013-01-19 15:12:00,
2013-01-19 10:22:00,27.0,25.0,-100.00,North,356,0.0,4.0,93,-99.99,,,0.01,0.000000,,2013-01-19 15:22:00,
2013-01-19 10:53:00,27.0,25.0,-100.00,ENE,62,0.0,2.0,93,0.00,,,0.01,0.000000,,2013-01-19 15:53:00,
2013-01-19 11:03:00,27.0,25.0,-100.00,ENE,62,0.0,2.0,93,0.00,,,0.01,0.000000,,2013-01-19 16:03:00,
2013-01-19 11:12:00,27.0,25.0,-100.00,ENE,62,0.0,2.0,93,0.00,,,0.01,0.000000,,2013-01-19 16:12:00,
2013-01-19 11:23:00,27.0,25.0,-100.00,ENE,62,0.0,2.0,93,0.00,,,0.01,0.000000,,2013-01-19 16:23:00,
2013-01-19 11:32:00,27.0,25.0,-100.00,ENE,62,0.0,2.0,93,0.00,,,0.01,0.000000,,2013-01-19 16:32:00,
2013-01-19 11:33:00,27.0,25.0,-100.00,NE,51,0.0,3.0,93,0.00,,,0.01,8.000000,,2013-01-19 16:33:00,
2013-01-19 11:54:00,27.0,25.0,-100.00,NE,51,0.0,3.0,93,0.00,,,0.01,8.000000,,2013-01-19 16:54:00,
2013-01-19 12:02:00,27.0,25.0,-100.00,NE,51,0.0,3.0,93,0.00,,,0.01,8.000000,,2013-01-19 17:02:00,
2013-01-19 12:14:00,27.0,25.0,-100.00,NE,51,0.0,3.0,93,0.00,,,0.01,8.000000,,2013-01-19 17:14:00,
2013-01-19 12:33:00,33.0,31.0,-100.00,East,95,1.0,3.0,92,0.00,,,0.00,95.000000,,2013-01-19 17:33:00,
2013-01-19 12:54:00,33.0,31.0,-100.00,East,95,1.0,3.0,92,0.00,,,0.00,95.000000,,2013-01-19 17:54:00,
2013-01-19 13:07:00,33.0,31.0,-100.00,East,95,1.0,3.0,92,0.00,,,0.00,95.000000,,2013-01-19 18:07:00,
2013-01-19 13:13:00,33.0,31.0,-100.00,East,95,1.0,3.0,92,0.00,,,0.00,95.000000,,2013-01-19 18:13:00,
2013-01-19 13:24:00,33.0,31.0,-100.00,East,95,1.0,3.0,92,0.00,,,0.00,95.000000,,2013-01-19 18:24:00,
2013-01-19 13:33:00,38.0,34.0,-100.00,ESE,114,1.0,3.0,85,0.00,,,0.00,218.000000,,2013-01-19 18:33:00,
2013-01-19 13:59:00,38.0,34.0,-100.00,ESE,114,1.0,3.0,85,0.00,,,0.00,218.000000,,2013-01-19 18:59:00,
2013-01-19 14:05:00,38.0,34.0,-100.00,ESE,114,1.0,3.0,85,0.00,,,0.00,218.000000,,2013-01-19 19:05:00,
2013-01-19 14:17:00,38.0,34.0,-100.00,ESE,114,1.0,3.0,85,0.00,,,0.00,218.000000,,2013-01-19 19:17:00,
2013-01-19 14:25:00,38.0,34.0,-100.00,ESE,114,1.0,3.0,85,0.00,,,0.00,218.000000,,2013-01-19 19:25:00,
2013-01-19 15:23:00,43.0,36.0,-100.00,ESE,115,1.0,4.0,77,0.00,,,0.00,198.000000,,2013-01-19 20:23:00,
2013-01-19 15:33:00,50.0,37.0,-100.00,NNE,14,1.0,5.0,61,0.00,,,-99.99,366.000000,,2013-01-19 20:33:00,
2013-01-19 15:57:00,50.0,37.0,-100.00,NNE,14,1.0,5.0,61,0.00,,,-99.99,366.000000,,2013-01-19 20:57:00,
2013-01-19 16:05:00,50.0,37.0,-100.00,NNE,14,1.0,5.0,61,0.00,,,-99.99,366.000000,,2013-01-19 21:05:00,
2013-01-19 16:13:00,50.0,37.0,-100.00,NNE,14,1.0,5.0,61,0.00,,,-99.99,366.000000,,2013-01-19 21:13:00,
2013-01-19 16:23:00,50.0,37.0,-100.00,NNE,14,1.0,5.0,61,0.00,,,-99.99,366.000000,,2013-01-19 21:23:00,
2013-01-19 16:33:00,53.0,38.0,-100.00,NNW,339,2.0,5.0,56,0.00,,,0.00,358.000000,,2013-01-19 21:33:00,
2013-01-19 16:59:00,53.0,38.0,-100.00,NNW,339,2.0,5.0,56,0.00,,,0.00,358.000000,,2013-01-19 21:59:00,
2013-01-19 17:08:00,53.0,38.0,-100.00,NNW,339,2.0,5.0,56,0.00,,,0.00,358.000000,,2013-01-19 22:08:00,
2013-01-19 17:15:00,53.0,38.0,-100.00,NNW,339,2.0,5.0,56,0.00,,,0.00,358.000000,,2013-01-19 22:15:00,
2013-01-19 17:24:00,53.0,38.0,-100.00,NNW,339,2.0,5.0,56,0.00,,,0.00,358.000000,,2013-01-19 22:24:00,
2013-01-19 17:33:00,52.0,36.0,-100.00,NNW,327,3.0,6.0,55,0.00,,,0.00,179.000000,,2013-01-19 22:33:00,
2013-01-19 17:58:00,52.0,36.0,-100.00,NNW,327,3.0,6.0,55,0.00,,,0.00,179.000000,,2013-01-19 22:58:00,
2013-01-19 18:09:00,52.0,36.0,-100.00,NNW,327,3.0,6.0,55,0.00,,,0.00,179.000000,,2013-01-19 23:09:00,
2013-01-19 18:24:00,52.0,36.0,-100.00,NNW,327,3.0,6.0,55,0.00,,,0.00,179.000000,,2013-01-19 23:24:00,
2013-01-19 18:33:00,50.0,37.0,-100.00,NNW,336,2.0,7.0,61,0.00,,,0.00,64.000000,,2013-01-19 23:33:00,
2013-01-19 19:06:00,50.0,37.0,-100.00,NNW,336,2.0,7.0,61,0.00,,,0.00,64.000000,,2013-01-20 00:06:00,
2013-01-19 19:14:00,50.0,37.0,-100.00,NNW,336,2.0,7.0,61,0.00,,,0.00,64.000000,,2013-01-20 00:14:00,
2013-01-19 19:33:00,46.0,37.0,-100.00,North,7,0.0,5.0,71,0.00,,,-99.99,30.000000,,2013-01-20 00:33:00,
2013-01-19 19:55:00,46.0,37.0,-100.00,North,7,0.0,5.0,71,0.00,,,-99.99,30.000000,,2013-01-20 00:55:00,
2013-01-19 20:03:00,46.0,37.0,-100.00,North,7,0.0,5.0,71,0.00,,,-99.99,30.000000,,2013-01-20 01:03:00,
2013-01-19 20:15:00,46.0,37.0,-100.00,North,7,0.0,5.0,71,0.00,,,-99.99,30.000000,,2013-01-20 01:15:00,
2013-01-19 20:24:00,46.0,37.0,-100.00,North,7,0.0,5.0,71,0.00,,,-99.99,30.000000,,2013-01-20 01:24:00,
2013-01-19 20:33:00,42.0,37.0,-100.00,North,8,1.0,4.0,81,0.00,,,0.00,7.000000,,2013-01-20 01:33:00,
2013-01-19 21:03:00,42.0,37.0,-100.00,North,8,1.0,4.0,81,0.00,,,0.00,7.000000,,2013-01-20 02:03:00,
2013-01-19 21:13:00,42.0,37.0,-100.00,North,8,1.0,4.0,81,0.00,,,0.00,7.000000,,2013-01-20 02:13:00,
2013-01-19 21:24:00,42.0,37.0,-100.00,North,8,1.0,4.0,81,0.00,,,0.00,7.000000,,2013-01-20 02:24:00,
2013-01-19 21:33:00,37.0,34.0,-100.00,SE,131,0.0,4.0,89,0.00,,,0.00,0.000000,,2013-01-20 02:33:00,
2013-01-19 21:58:00,37.0,34.0,-100.00,SE,131,0.0,4.0,89,0.00,,,0.00,0.000000,,2013-01-20 02:58:00,
2013-01-19 22:06:00,37.0,34.0,-100.00,SE,131,0.0,4.0,89,0.00,,,0.00,0.000000,,2013-01-20 03:06:00,
2013-01-19 22:13:00,37.0,34.0,-100.00,SE,131,0.0,4.0,89,0.00,,,0.00,0.000000,,2013-01-20 03:13:00,
2013-01-19 22:33:00,35.0,33.0,-100.00,NE,37,0.0,5.0,93,0.00,,,0.00,0.000000,,2013-01-20 03:33:00,
2013-01-19 22:57:00,35.0,33.0,-100.00,NE,37,0.0,5.0,93,0.00,,,0.00,0.000000,,2013-01-20 03:57:00,
2013-01-19 23:04:00,35.0,33.0,-100.00,NE,37,0.0,5.0,93,0.00,,,0.00,0.000000,,2013-01-20 04:04:00,
2013-01-19 23:14:00,35.0,33.0,-100.00,NE,37,0.0,5.0,93,0.00,,,0.00,0.000000,,2013-01-20 04:14:00,
2013-01-19 23:23:00,35.0,33.0,-100.00,NE,37,0.0,5.0,93,0.00,,,0.00,0.000000,,2013-01-20 04:23:00,
2013-01-19 23:56:00,32.0,30.0,-100.00,NE,45,0.0,3.0,93,0.00,,,0.00,0.000000,,2013-01-20 04:56:00,